Weather History for KCQM - October, 2011

Change the Weather History Date:

Wednesday, October 26, 2011

  Actual Average Record
Temperature  
Mean Temperature 37 °F -  
Max Temperature 46 °F 43 °F 62 °F (2000)
Min Temperature 28 °F 28 °F 12 °F (1997)
Degree Days  
Heating Degree Days 28    
Moisture  
Dew Point 30 °F    
Average Humidity 82    
Maximum Humidity 100    
Minimum Humidity 53    
Precipitation  
Precipitation 0.00 in - - ()
Sea Level Pressure  
Sea Level Pressure 30.05 in    
Wind  
Wind Speed 1 mph (NW)    
Max Wind Speed 7 mph    
Max Gust Speed 39 mph    
Visibility 10 miles    
Events Rain    
Averages and records for this station are not official NWS values.
T = Trace of Precipitation, MM = Missing Value Source: NWS Daily Summary

Daily Weather History Graph

Daily Weather History Graph

Search for Another Location

Airport or City:

Trip Planner

Search our weather history database for the weather conditions in past years. The results will help you decide how hot, cold, wet, or windy it might be!

Date:

Astronomy

Oct. 26, 2011 Rise Set
Actual Time 7:45 AM CDT 6:02 PM CDT
Civil Twilight 7:13 AM CDT 6:34 PM CDT
Nautical Twilight 6:37 AM CDT 7:10 PM CDT
Astronomical Twilight 6:01 AM CDT 7:46 PM CDT
Moon 7:38 AM CDT (10/26) 5:39 PM CDT (10/26)
Length of Visible Light 11h 20m
Length of Day
10h 17m
Waning Crescent, 0% of the Moon is Illuminated
Oct 26
Waning Crescent
Oct 26
New
Nov 2
First Quarter
Nov 10
Full
Nov 18
Last Quarter

Hourly Weather History & Observations

Time (CDT) Temp. Windchill Dew Point Humidity Pressure Visibility Wind Dir Wind Speed Gust Speed Precip Events Conditions
12:16 AM 30.2 °F - 26.6 °F 86% 30.06 in 10.0 mi Calm Calm - N/A   Overcast
12:36 AM 30.2 °F - 28.4 °F 93% 30.06 in 10.0 mi Calm Calm - N/A   Mostly Cloudy
12:56 AM 30.2 °F - 28.4 °F 93% 30.06 in 10.0 mi Calm Calm - N/A   Mostly Cloudy
1:16 AM 30.2 °F - 26.6 °F 86% 30.06 in 10.0 mi Calm Calm - N/A   Clear
1:37 AM 30.2 °F - 28.4 °F 93% 30.06 in 10.0 mi Calm Calm - N/A   Mostly Cloudy
1:56 AM 30.2 °F - 28.4 °F 93% 30.05 in 10.0 mi Calm Calm - N/A   Overcast
2:16 AM 28.4 °F - 26.6 °F 93% 30.05 in 10.0 mi Calm Calm - N/A   Overcast
2:36 AM 28.4 °F - 26.6 °F 93% 30.05 in 10.0 mi Calm Calm - N/A   Overcast
2:56 AM 28.4 °F - 26.6 °F 93% 30.05 in 10.0 mi Calm Calm - N/A   Overcast
3:16 AM 28.4 °F - 26.6 °F 93% 30.05 in 10.0 mi Calm Calm - N/A   Overcast
3:37 AM 28.4 °F - 26.6 °F 93% 30.05 in 10.0 mi Calm Calm - N/A   Overcast
3:56 AM 28.4 °F - 26.6 °F 93% 30.04 in 10.0 mi Calm Calm - N/A   Overcast
4:16 AM 28.4 °F - 28.4 °F 100% 30.05 in 10.0 mi Calm Calm - N/A   Overcast
4:36 AM 30.2 °F - 28.4 °F 93% 30.05 in 10.0 mi Calm Calm - N/A   Overcast
4:56 AM 30.2 °F - 28.4 °F 93% 30.06 in 10.0 mi Calm Calm - N/A   Scattered Clouds
5:17 AM 28.4 °F - 28.4 °F 100% 30.06 in 10.0 mi Calm Calm - N/A   Clear
5:36 AM 28.4 °F - 28.4 °F 100% 30.06 in 10.0 mi Calm Calm - N/A   Mostly Cloudy
5:56 AM 28.4 °F - 28.4 °F 100% 30.07 in 10.0 mi Calm Calm - N/A   Overcast
6:17 AM 28.4 °F - 26.6 °F 93% 30.07 in 10.0 mi Calm Calm - N/A   Overcast
6:36 AM 28.4 °F - 26.6 °F 93% 30.07 in 10.0 mi Calm Calm - N/A   Overcast
7:17 AM 28.4 °F - 26.6 °F 93% 30.07 in 10.0 mi Calm Calm - N/A   Overcast
7:36 AM 28.4 °F - 26.6 °F 93% 30.06 in 10.0 mi Calm Calm - N/A   Overcast
7:56 AM 28.4 °F - 28.4 °F 100% 30.07 in 10.0 mi Calm Calm - N/A   Overcast
8:17 AM 28.4 °F - 26.6 °F 93% 30.07 in 10.0 mi Calm Calm - N/A   Overcast
8:36 AM 28.4 °F - 26.6 °F 93% 30.07 in 10.0 mi Calm Calm - N/A   Overcast
8:56 AM 30.2 °F - 28.4 °F 93% 30.07 in 10.0 mi Calm Calm - N/A   Overcast
9:16 AM 33.8 °F - 30.2 °F 87% 30.07 in 10.0 mi Calm Calm - N/A   Overcast
9:36 AM 35.6 °F - 33.8 °F 93% 30.07 in 10.0 mi Calm Calm - N/A   Overcast
9:56 AM 37.4 °F - 33.8 °F 87% 30.07 in 10.0 mi Calm Calm - N/A   Overcast
10:16 AM 39.2 °F - 35.6 °F 87% 30.06 in 10.0 mi Calm Calm - N/A   Scattered Clouds
10:56 AM 39.2 °F 37.0 °F 33.8 °F 81% 30.08 in 10.0 mi NNW 3.5 mph - N/A   Mostly Cloudy
11:16 AM 42.8 °F 39.3 °F 33.8 °F 70% 30.07 in 10.0 mi North 5.8 mph - N/A   Mostly Cloudy
11:36 AM 41.0 °F 38.0 °F 33.8 °F 76% 30.08 in 10.0 mi North 4.6 mph - N/A   Overcast
11:57 AM 41.0 °F 38.0 °F 33.8 °F 76% 30.08 in 10.0 mi NNE 4.6 mph - N/A   Overcast
12:16 PM 42.8 °F 41.1 °F 32.0 °F 66% 30.08 in 10.0 mi NNW 3.5 mph - N/A   Overcast
12:36 PM 42.8 °F 41.1 °F 32.0 °F 66% 30.08 in 10.0 mi NW 3.5 mph - N/A   Overcast
12:57 PM 44.6 °F 43.1 °F 33.8 °F 66% 30.07 in 10.0 mi North 3.5 mph - N/A   Mostly Cloudy
1:16 PM 46.4 °F 45.2 °F 32.0 °F 57% 30.06 in 10.0 mi West 3.5 mph - N/A   Scattered Clouds
1:36 PM 46.4 °F 44.3 °F 32.0 °F 57% 30.05 in 10.0 mi WNW 4.6 mph - N/A   Clear
1:57 PM 46.4 °F 43.5 °F 32.0 °F 57% 30.04 in 10.0 mi North 5.8 mph 39.1 mph N/A   Mostly Cloudy
2:16 PM 44.6 °F 43.1 °F 30.2 °F 57% 30.04 in 10.0 mi North 3.5 mph - N/A   Scattered Clouds
2:36 PM 44.6 °F 43.1 °F 30.2 °F 57% 30.03 in 10.0 mi NNE 3.5 mph - N/A   Scattered Clouds
2:56 PM 46.4 °F 42.9 °F 30.2 °F 53% 30.03 in 10.0 mi NNE 6.9 mph - N/A   Mostly Cloudy
3:16 PM 44.6 °F 43.1 °F 30.2 °F 57% 30.02 in 10.0 mi North 3.5 mph - N/A   Mostly Cloudy
3:37 PM 44.6 °F 43.1 °F 30.2 °F 57% 30.02 in 10.0 mi North 3.5 mph - N/A   Scattered Clouds
3:56 PM 44.6 °F - 30.2 °F 57% 30.02 in 10.0 mi Calm Calm - N/A   Clear
4:16 PM 44.6 °F 43.1 °F 30.2 °F 57% 30.02 in 10.0 mi WNW 3.5 mph - N/A   Clear
4:37 PM 44.6 °F 42.2 °F 30.2 °F 57% 30.02 in 10.0 mi West 4.6 mph - N/A   Scattered Clouds
5:16 PM 44.6 °F 40.7 °F 32.0 °F 61% 30.02 in 10.0 mi WSW 6.9 mph - N/A   Overcast
5:37 PM 42.8 °F - 32.0 °F 66% 30.02 in 10.0 mi Calm Calm - N/A   Overcast
5:56 PM 42.8 °F - 32.0 °F 66% 30.02 in 10.0 mi Calm Calm - N/A   Overcast
6:16 PM 41.0 °F 39.0 °F 33.8 °F 76% 30.02 in 10.0 mi West 3.5 mph - N/A Rain Light Rain
6:37 PM 39.2 °F - 33.8 °F 81% 30.02 in 10.0 mi Calm Calm - N/A   Overcast
7:36 PM 39.2 °F 35.9 °F 33.8 °F 81% 30.02 in 10.0 mi West 4.6 mph - N/A   Overcast
7:56 PM 37.4 °F 34.9 °F 33.8 °F 87% 30.02 in 10.0 mi West 3.5 mph - N/A   Overcast
8:17 PM 37.4 °F 34.9 °F 33.8 °F 87% 30.03 in 10.0 mi West 3.5 mph - N/A   Overcast
8:36 PM 37.4 °F - 33.8 °F 87% 30.02 in 10.0 mi Calm Calm - N/A   Overcast
8:57 PM 37.4 °F - 33.8 °F 87% 30.02 in 10.0 mi Calm Calm - N/A   Overcast
9:16 PM 37.4 °F - 33.8 °F 87% 30.02 in 10.0 mi Calm Calm - N/A   Overcast
9:36 PM 35.6 °F - 33.8 °F 93% 30.01 in 10.0 mi Calm Calm - N/A   Overcast
9:57 PM 35.6 °F - 33.8 °F 93% 30.02 in 10.0 mi Calm Calm - N/A   Overcast
10:36 PM 33.8 °F - 32.0 °F 93% 30.01 in 10.0 mi Calm Calm - N/A   Mostly Cloudy
11:16 PM 32.0 °F - 30.2 °F 93% 30.01 in 10.0 mi Calm Calm - N/A   Mostly Cloudy
11:36 PM 30.2 °F - 30.2 °F 100% 30.02 in 10.0 mi Calm Calm - N/A   Scattered Clouds
11:57 PM 30.2 °F - 30.2 °F 100% 30.01 in 10.0 mi Calm Calm - N/A   Mostly Cloudy